Location: ?????????
(54.7630°N, 39.4991°E)
Time: 07:09:35
(UTC+00:00)

Cosmos 1076 Rocket - Pass Details

Date: 14 April 2026
Orbit: 581 x 603 km, 82.5° (Epoch: 13 May)

Event Time Altitude Azimuth Distance (km) Brightness Sun altitude
Rises 22:48:33 0° 350° (N) 2,871 7.9 -23.0°
Reaches altitude 10° 22:50:49 10° 354° (N) 1,963 6.9 -22.9°
Maximum altitude 22:55:07 60° 75° (ENE) 696 3.9 -22.7°
Enters shadow 22:56:12 44° 130° (SE) 835 4.0 -22.6°
